• In Hungary
  • List of Countries
  • For 7 days
  • Water Temperature
  • Satellite Maps
  • Weather Map
  • News
  • Weather Widgets
  • user-avatar
    Login

    Hourly Weather Orenburg

    Today, 24 September, Monday

    Time Temperature Precipitation Wind Pressure Humidity
    00:00 +17°C° 0 mm 2 mps 747 mmHg 72%
    01:00 +17°C° 0 mm 2 mps 747 mmHg 72%
    02:00 +17°C° 0 mm 2 mps 747 mmHg 71%
    03:00 +16°C° 0 mm 2 mps 746 mmHg 69%
    04:00 +15°C° 0 mm 2 mps 746 mmHg 68%
    05:00 +15°C° 0 mm 2 mps 746 mmHg 65%
    06:00 +15°C° 0 mm 2 mps 746 mmHg 63%
    07:00 +15°C° 0 mm 2 mps 746 mmHg 61%
    08:00 +18°C° 0 mm 3 mps 746 mmHg 52%
    09:00 +20°C° 0 mm 4 mps 746 mmHg 44%
    10:00 +22°C° 0 mm 5 mps 746 mmHg 35%
    11:00 +23°C° 0 mm 5 mps 746 mmHg 33%
    12:00 +23°C° 0 mm 6 mps 746 mmHg 31%
    13:00 +24°C° 0 mm 7 mps 745 mmHg 30%
    14:00 +24°C° 0 mm 7 mps 745 mmHg 29%
    15:00 +24°C° 0 mm 7 mps 745 mmHg 29%
    16:00 +24°C° 0 mm 7 mps 745 mmHg 28%
    17:00 +23°C° 0 mm 6 mps 745 mmHg 30%
    18:00 +22°C° 0 mm 5 mps 745 mmHg 33%
    19:00 +20°C° 0 mm 3 mps 745 mmHg 35%
    20:00 +20°C° 0 mm 4 mps 745 mmHg 35%
    21:00 +20°C° 0 mm 4 mps 745 mmHg 35%
    22:00 +19°C° 0 mm 4 mps 745 mmHg 35%
    23:00 +19°C° 0 mm 4 mps 745 mmHg 35%

    Tomorrow, 25 September, Tuesday

    Time Temperature Precipitation Wind Pressure Humidity
    00:00 +18°C° 0 mm 4 mps 744 mmHg 36%
    01:00 +18°C° 0 mm 4 mps 744 mmHg 36%
    02:00 +18°C° 0 mm 4 mps 744 mmHg 39%
    03:00 +17°C° 0 mm 4 mps 745 mmHg 41%
    04:00 +17°C° 0 mm 3 mps 745 mmHg 43%
    05:00 +17°C° 0 mm 3 mps 745 mmHg 43%
    06:00 +17°C° 0 mm 4 mps 745 mmHg 43%
    07:00 +17°C° 0 mm 4 mps 745 mmHg 43%
    08:00 +17°C° 0 mm 5 mps 745 mmHg 42%
    09:00 +20°C° 0 mm 5 mps 745 mmHg 41%
    10:00 +21°C° 0 mm 6 mps 745 mmHg 40%
    11:00 +22°C° 0 mm 6 mps 745 mmHg 39%
    12:00 +23°C° 0 mm 7 mps 745 mmHg 38%
    13:00 +23°C° 0 mm 7 mps 745 mmHg 37%
    14:00 +23°C° 0 mm 7 mps 745 mmHg 36%
    15:00 +23°C° 0 mm 6 mps 745 mmHg 35%
    16:00 +23°C° 0 mm 6 mps 745 mmHg 35%
    17:00 +22°C° 0 mm 5 mps 745 mmHg 38%
    18:00 +20°C° 0 mm 4 mps 745 mmHg 40%
    19:00 +19°C° 0 mm 3 mps 745 mmHg 43%
    20:00 +18°C° 0 mm 3 mps 745 mmHg 45%
    21:00 +17°C° 0 mm 2 mps 745 mmHg 48%
    22:00 +16°C° 0 mm 2 mps 746 mmHg 50%
    23:00 +16°C° 0 mm 2 mps 746 mmHg 52%

    Day after tomorrow, 26 September, Wednesday

    Time Temperature Precipitation Wind Pressure Humidity
    00:00 +16°C° 0 mm 3 mps 746 mmHg 53%
    01:00 +14°C° 0 mm 3 mps 746 mmHg 55%
    02:00 +14°C° 0 mm 3 mps 746 mmHg 55%
    03:00 +14°C° 0 mm 3 mps 746 mmHg 56%
    04:00 +14°C° 0 mm 3 mps 746 mmHg 56%
    05:00 +14°C° 0 mm 3 mps 746 mmHg 57%
    06:00 +14°C° 0 mm 3 mps 746 mmHg 57%
    07:00 +14°C° 0 mm 3 mps 746 mmHg 57%
    08:00 +17°C° 0 mm 3 mps 746 mmHg 52%
    09:00 +18°C° 0 mm 3 mps 746 mmHg 47%
    10:00 +20°C° 0 mm 4 mps 747 mmHg 41%
    11:00 +20°C° 0 mm 3 mps 747 mmHg 38%
    12:00 +21°C° 0 mm 3 mps 747 mmHg 35%
    13:00 +22°C° 0 mm 3 mps 747 mmHg 32%
    14:00 +22°C° 0 mm 3 mps 747 mmHg 31%
    15:00 +22°C° 0 mm 3 mps 747 mmHg 31%
    16:00 +24°C° 0 mm 3 mps 747 mmHg 30%
    17:00 +21°C° 0 mm 3 mps 747 mmHg 38%
    18:00 +19°C° 0 mm 4 mps 747 mmHg 46%
    19:00 +17°C° 0 mm 4 mps 748 mmHg 54%
    20:00 +15°C° 0 mm 4 mps 748 mmHg 60%
    21:00 +14°C° 0 mm 4 mps 748 mmHg 67%
    22:00 +13°C° 0 mm 5 mps 748 mmHg 73%
    23:00 +12°C° 0.1 mm 5 mps 748 mmHg 74%

    27 September, Thursday

    Time Temperature Precipitation Wind Pressure Humidity
    00:00 +12°C° 0.1 mm 5 mps 748 mmHg 75%
    01:00 +10°C° 0.1 mm 5 mps 748 mmHg 76%
    02:00 +11°C° 0.4 mm 4 mps 748 mmHg 77%
    03:00 +10°C° 0.4 mm 4 mps 748 mmHg 78%
    04:00 +10°C° 0.4 mm 4 mps 748 mmHg 80%
    05:00 +10°C° 0.5 mm 4 mps 748 mmHg 81%
    06:00 +9°C° 0.5 mm 3 mps 748 mmHg 82%
    07:00 +9°C° 0.5 mm 3 mps 748 mmHg 83%
    08:00 +9°C° 0.3 mm 3 mps 748 mmHg 81%
    09:00 +10°C° 0.3 mm 3 mps 748 mmHg 79%
    10:00 +10°C° 0.3 mm 3 mps 748 mmHg 78%
    11:00 +11°C° 0.2 mm 3 mps 748 mmHg 72%
    12:00 +11°C° 0.2 mm 3 mps 748 mmHg 67%
    13:00 +12°C° 0.2 mm 3 mps 748 mmHg 62%
    14:00 +12°C° 0.1 mm 3 mps 748 mmHg 58%
    15:00 +12°C° 0.1 mm 4 mps 747 mmHg 55%
    16:00 +12°C° 0.1 mm 4 mps 747 mmHg 51%
    17:00 +11°C° 0 mm 3 mps 747 mmHg 52%
    18:00 +10°C° 0 mm 3 mps 747 mmHg 54%
    19:00 +9°C° 0 mm 2 mps 747 mmHg 55%
    20:00 +9°C° 0 mm 3 mps 747 mmHg 56%
    21:00 +9°C° 0 mm 3 mps 746 mmHg 56%
    22:00 +9°C° 0 mm 3 mps 746 mmHg 56%
    23:00 +9°C° 0 mm 3 mps 746 mmHg 56%

    28 September, Friday

    Time Temperature Precipitation Wind Pressure Humidity
    00:00 +8°C° 0 mm 4 mps 745 mmHg 56%
    01:00 +8°C° 0 mm 4 mps 745 mmHg 56%
    02:00 +8°C° 0.1 mm 5 mps 744 mmHg 57%
    03:00 +8°C° 0.1 mm 5 mps 744 mmHg 58%
    04:00 +8°C° 0.1 mm 6 mps 744 mmHg 59%
    05:00 +8°C° 0.2 mm 6 mps 743 mmHg 61%
    06:00 +8°C° 0.2 mm 6 mps 743 mmHg 63%
    07:00 +8°C° 0.2 mm 6 mps 743 mmHg 65%
    08:00 +8°C° 0.1 mm 7 mps 743 mmHg 64%
    09:00 +8°C° 0.1 mm 7 mps 743 mmHg 63%
    10:00 +9°C° 0.1 mm 7 mps 743 mmHg 62%
    11:00 +9°C° 0 mm 7 mps 743 mmHg 61%
    12:00 +9°C° 0 mm 7 mps 743 mmHg 61%
    13:00 +10°C° 0 mm 7 mps 743 mmHg 61%
    14:00 +10°C° 0.2 mm 7 mps 743 mmHg 64%
    15:00 +9°C° 0.2 mm 7 mps 743 mmHg 66%
    16:00 +9°C° 0.2 mm 7 mps 744 mmHg 69%
    17:00 +9°C° 0.1 mm 6 mps 744 mmHg 72%
    18:00 +8°C° 0.1 mm 5 mps 744 mmHg 74%
    19:00 +8°C° 0.1 mm 4 mps 745 mmHg 77%
    20:00 +8°C° 0 mm 3 mps 745 mmHg 78%
    21:00 +8°C° 0 mm 3 mps 745 mmHg 79%
    22:00 +8°C° 0 mm 3 mps 746 mmHg 81%
    23:00 +7°C° 0 mm 3 mps 746 mmHg 82%

    29 September, Saturday

    Time Temperature Precipitation Wind Pressure Humidity
    00:00 +7°C° 0 mm 3 mps 746 mmHg 83%
    01:00 +7°C° 0 mm 3 mps 746 mmHg 84%
    02:00 +6°C° 0 mm 4 mps 746 mmHg 84%
    03:00 +6°C° 0 mm 4 mps 746 mmHg 83%
    04:00 +6°C° 0 mm 4 mps 746 mmHg 83%
    05:00 +6°C° 0 mm 5 mps 746 mmHg 80%
    06:00 +7°C° 0 mm 5 mps 746 mmHg 77%
    07:00 +7°C° 0 mm 6 mps 746 mmHg 73%
    08:00 +9°C° 0 mm 7 mps 746 mmHg 66%
    09:00 +11°C° 0 mm 8 mps 746 mmHg 59%
    10:00 +13°C° 0 mm 9 mps 746 mmHg 52%
    11:00 +16°C° 0 mm 9 mps 746 mmHg 49%
    12:00 +17°C° 0 mm 9 mps 746 mmHg 46%
    13:00 +18°C° 0 mm 9 mps 746 mmHg 43%
    14:00 +19°C° 0 mm 9 mps 746 mmHg 43%
    15:00 +20°C° 0 mm 8 mps 746 mmHg 43%
    16:00 +20°C° 0 mm 8 mps 746 mmHg 42%
    17:00 +18°C° 0 mm 7 mps 746 mmHg 47%
    18:00 +17°C° 0 mm 5 mps 746 mmHg 51%
    19:00 +17°C° 0 mm 4 mps 746 mmHg 56%
    20:00 +15°C° 0 mm 4 mps 746 mmHg 57%
    21:00 +15°C° 0 mm 4 mps 746 mmHg 58%
    22:00 +15°C° 0 mm 4 mps 746 mmHg 59%
    23:00 +15°C° 0 mm 4 mps 746 mmHg 59%
    Show more